Location: LDNL
(36.4545°S, 141.6685°E)
Time: 03:58:22
(UTC+11:00)

A-11 Canister half - Pass Details

Date: 17 August 2022
Orbit: 1524 x 1684 km, 47.3° (Epoch: 05 October)

Event Time Altitude Azimuth Distance (km) Brightness Sun altitude
Rises 23:41:05 0° 239° (WSW) 4,704 11.9 -63.6°
Enters shadow 23:43:24 - 243° (WSW) 3,982 11.4 -63.9°
Reaches altitude 10° 23:44:15 10° 244° (WSW) 3,728 - -64.0°
Maximum altitude 23:53:06 48° 314° (NW) 1,973 - -64.8°
Drops below altitude 10° 00:02:10 10° 25° (NNE) 3,806 - -65.5°
Sets 00:05:27 0° 30° (NNE) 4,809 - -65.8°
